EW7114 Weather Reports


time (UTC)temp
C
wind
direction
speed
KPH
gust
KPH
rain 1hr
cm
rain 24hr
cm
rain mn
cm
humidity
%
barometer
mb
20260503000044 21 320 6.4 16.1 0.00 0.00 0.00 23 1011.3
20260502235544 21 15 4.8 19.3 0.00 0.00 0.00 23 1011.3
20260502235039 21 50 11.3 22.5 0.00 0.00 0.00 24 1011.3
20260502234549 21 336 11.3 22.5 0.00 0.00 0.00 22 1011.3
20260502234037 21 16 9.7 20.9 0.00 0.00 0.00 24 1011.3
20260502233535 21 36 12.9 25.7 0.00 0.00 0.00 23 1011.3
20260502233040 21 350 17.7 25.7 0.00 0.00 0.00 24 1011.4
20260502232532 21 265 3.2 22.5 0.00 0.00 0.00 24 1011.4
20260502232031 21 36 4.8 22.5 0.00 0.00 0.00 23 1011.5
20260502231529 21 4 8.0 17.7 0.00 0.00 0.00 24 1011.5
20260502231028 21 332 4.8 22.5 0.00 0.00 0.00 23 1011.6
20260502230527 22 345 11.3 22.5 0.00 0.00 0.00 23 1011.7
20260502230032 21 22 8.0 19.3 0.00 0.00 0.00 24 1011.7
20260502225523 21 50 9.7 19.3 0.00 0.00 0.00 23 1011.9
20260502225022 21 315 9.7 17.7 0.00 0.00 0.00 23 1012.0
20260502224520 21 15 6.4 17.7 0.00 0.00 0.00 23 1012.1
20260502224019 21 345 3.2 14.5 0.00 0.00 0.00 22 1012.2
20260502223518 21 176 4.8 17.7 0.00 0.00 0.00 21 1012.2
20260502223024 21 321 8.0 17.7 0.00 0.00 0.00 21 1012.3
20260502222514 21 77 6.4 16.1 0.00 0.00 0.00 21 1012.4
20260502222013 21 192 3.2 17.7 0.00 0.00 0.00 21 1012.6
20260502221515 21 253 9.7 17.7 0.00 0.00 0.00 21 1012.7
20260502221010 21 207 1.6 14.5 0.00 0.00 0.00 21 1012.8
20260502220509 21 153 6.4 32.2 0.00 0.00 0.00 22 1012.8
20260502220008 21 168 16.1 32.2 0.00 0.00 0.00 20 1013.0
20260502215510 21 174 6.4 14.5 0.00 0.00 0.00 21 1013.1
20260502215005 21 258 3.2 14.5 0.00 0.00 0.00 23 1013.2
20260502214504 21 188 8.0 19.3 0.00 0.00 0.00 22 1013.3
20260502214002 21 143 6.4 19.3 0.00 0.00 0.00 21 1013.4
20260502213601 21 260 9.7 17.7 0.00 0.00 0.00 23 1013.5
20260502213059 21 219 9.7 22.5 0.00 0.00 0.00 20 1013.6
20260502212557 22 174 12.9 22.5 0.00 0.00 0.00 19 1013.7
20260502212056 21 128 6.4 17.7 0.00 0.00 0.00 19 1013.6
20260502211555 21 126 9.7 24.1 0.00 0.00 0.00 20 1013.8
20260502211052 22 180 19.3 22.5 0.00 0.00 0.00 22 1013.6
20260502210551 21 90 3.2 17.7 0.00 0.00 0.00 22 1013.9
20260502210058 21 153 6.4 19.3 0.00 0.00 0.00 21 1014.0
20260502205548 21 153 6.4 22.5 0.00 0.00 0.00 22 1014.1
20260502205049 21 185 6.4 20.9 0.00 0.00 0.00 21 1014.2
20260502204552 21 186 11.3 16.1 0.00 0.00 0.00 22 1014.2
20260502204045 21 122 4.8 14.5 0.00 0.00 0.00 22 1014.2
20260502203543 21 223 6.4 32.2 0.00 0.00 0.00 23 1014.5
20260502203047 21 168 20.9 32.2 0.00 0.00 0.00 21 1014.5
20260502202540 21 179 14.5 19.3 0.00 0.00 0.00 23 1014.5
20260502202038 21 138 11.3 19.3 0.00 0.00 0.00 22 1014.6
20260502201536 20 62 6.4 17.7 0.00 0.00 0.00 22 1014.6
20260502201035 20 171 4.8 17.7 0.00 0.00 0.00 22 1014.7
20260502200535 20 145 6.4 17.7 0.00 0.00 0.00 22 1014.9
20260502200032 20 170 1.6 24.1 0.00 0.00 0.00 23 1014.9
20260502195530 20 170 6.4 27.4 0.00 0.00 0.00 22 1015.0
20260502195029 20 134 20.9 27.4 0.00 0.00 0.00 23 1015.0
20260502194532 20 221 4.8 19.3 0.00 0.00 0.00 23 1015.0
20260502194026 20 227 6.4 14.5 0.00 0.00 0.00 23 1015.1
20260502193525 20 219 4.8 27.4 0.00 0.00 0.00 23 1015.2
20260502193024 20 120 19.3 35.4 0.00 0.00 0.00 23 1015.2
20260502192522 20 121 19.3 29.0 0.00 0.00 0.00 24 1015.3
20260502192020 20 155 8.0 24.1 0.00 0.00 0.00 23 1015.4
20260502191518 20 144 12.9 20.9 0.00 0.00 0.00 23 1015.6
20260502191021 20 134 14.5 27.4 0.00 0.00 0.00 24 1015.6
20260502190516 20 120 14.5 27.4 0.00 0.00 0.00 24 1015.6
20260502190015 20 164 11.3 25.7 0.00 0.00 0.00 23 1015.8
20260502185516 20 158 17.7 25.7 0.00 0.00 0.00 23 1016.0
20260502185011 20 116 11.3 29.0 0.00 0.00 0.00 24 1016.0
20260502184510 20 139 16.1 30.6 0.00 0.00 0.00 24 1016.1
20260502184014 20 138 19.3 30.6 0.00 0.00 0.00 23 1016.2
20260502183507 20 120 12.9 17.7 0.00 0.00 0.00 24 1016.3
20260502183006 20 157 11.3 22.5 0.00 0.00 0.00 24 1016.4
20260502182503 20 132 17.7 24.1 0.00 0.00 0.00 23 1016.6
20260502182002 20 138 14.5 24.1 0.00 0.00 0.00 24 1016.6
20260502181504 19 127 16.1 27.4 0.00 0.00 0.00 24 1016.6
20260502181100 19 161 19.3 29.0 0.00 0.00 0.00 25 1016.7
20260502180558 19 160 16.1 29.0 0.00 0.00 0.00 25 1016.7
20260502164033 16 119 11.3 19.3 0.00 0.00 0.00 32 1017.6
20260502163532 16 134 11.3 19.3 0.00 0.00 0.00 34 1017.7
20260502163044 16 135 9.7 19.3 0.00 0.00 0.00 34 1017.7
20260502162530 16 132 12.9 19.3 0.00 0.00 0.00 35 1017.7
20260502162027 15 153 14.5 19.3 0.00 0.00 0.00 37 1017.8
20260502161526 15 136 11.3 17.7 0.00 0.00 0.00 38 1017.8
20260502161025 15 130 9.7 16.1 0.00 0.00 0.00 39 1018.0
20260502160525 13 150 12.9 16.1 0.00 0.00 0.00 40 1018.0
20260502152010 8 162 3.2 9.7 0.00 0.00 0.00 51 1018.6
20260502151524 8 146 1.6 8.0 0.00 0.00 0.00 51 1018.7
20260502151007 7 181 3.2 6.4 0.00 0.00 0.00 51 1018.8
20260502150505 7 191 3.2 8.0 0.00 0.00 0.00 49 1018.9
20260502130539 -4 190 1.6 3.2 0.00 0.00 0.00 1 1018.8
20260502123529 -2 190 0.0 0.0 0.00 0.00 0.00 1 1018.7
20260502123036 -2 190 0.0 0.0 0.00 0.00 0.00 1 1018.6
20260502122530 -2 190 0.0 0.0 0.00 0.00 0.00 1 1018.6
20260502122028 -3 190 0.0 3.2 0.00 0.00 0.00 1 1018.6
20260502121524 -3 190 0.0 3.2 0.00 0.00 0.00 1 1018.6
20260502121022 -3 190 0.0 3.2 0.00 0.00 0.00 1 1018.5
20260502120521 -3 190 0.0 3.2 0.00 0.00 0.00 1 1018.5
20260502115518 -2 190 0.0 0.0 0.00 0.00 0.00 1 1018.4
20260502115016 -2 190 0.0 6.4 0.00 0.00 0.00 1 1018.4
20260502114515 -2 190 1.6 6.4 0.00 0.00 0.00 1 1018.5
20260502114014 -2 190 3.2 6.4 0.00 0.00 0.00 1 1018.4
20260502113514 -2 191 0.0 4.8 0.00 0.00 0.00 1 1018.5
20260502113011 -2 190 1.6 3.2 0.00 0.00 0.00 1 1018.5
20260502112509 -3 190 0.0 3.2 0.00 0.00 0.00 1 1018.5
20260502112007 -3 190 1.6 3.2 0.00 0.00 0.00 1 1018.4
20260502111510 -3 190 1.6 3.2 0.00 0.00 0.00 1 1018.4
20260502111005 -3 190 0.0 1.6 0.00 0.00 0.00 6 1018.4
20260502110504 -3 190 0.0 0.0 0.00 0.00 0.00 12 1018.4
20260502110002 -3 190 0.0 0.0 0.00 0.00 0.00 16 1018.5
20260502105501 -2 190 0.0 3.2 0.00 0.00 0.00 18 1018.4
20260502105059 -2 190 1.6 3.2 0.00 0.00 0.00 18 1018.4
20260502104558 -1 190 1.6 3.2 0.00 0.00 0.00 5 1018.4
20260502104056 0 190 0.0 0.0 0.00 0.00 0.00 1 1018.4
20260502103555 0 190 0.0 3.2 0.00 0.00 0.00 1 1018.4
20260502103104 -1 190 0.0 4.8 0.00 0.00 0.00 1 1018.5
20260502102552 -1 190 1.6 4.8 0.00 0.00 0.00 1 1018.4
20260502102051 -1 190 1.6 4.8 0.00 0.00 0.00 1 1018.5
20260502101559 -1 190 0.0 3.2 0.00 0.00 0.00 1 1018.3
20260502101047 -1 190 0.0 3.2 0.00 0.00 0.00 1 1018.3
20260502100547 -1 190 1.6 3.2 0.00 0.00 0.00 8 1018.3
20260502100108 -1 190 0.0 3.2 0.00 0.00 0.00 16 1018.4
20260502091534 0 190 0.0 0.0 0.00 0.00 0.00 40 1018.1
20260502091034 0 190 0.0 0.0 0.00 0.00 0.00 41 1018.2
20260502090532 0 190 0.0 0.0 0.00 0.00 0.00 39 1018.1
20260502071518 1 218 1.6 6.4 0.00 0.00 0.00 51 1017.7
20260502071016 2 181 1.6 6.4 0.00 0.00 0.00 53 1017.7
20260502070516 2 181 3.2 6.4 0.00 0.00 0.00 52 1017.6
20260502070015 2 181 3.2 6.4 0.00 0.00 0.00 52 1017.6
20260502065514 2 181 3.2 6.4 0.00 0.00 0.00 54 1017.5
20260502065013 2 196 3.2 6.4 0.00 0.00 0.00 54 1017.5
20260502064512 2 152 3.2 8.0 0.00 0.00 0.00 55 1017.4
20260502064017 2 159 4.8 9.7 0.00 0.00 0.00 55 1017.3
20260502063511 2 159 4.8 9.7 0.00 0.00 0.00 56 1017.3
20260502063009 2 165 4.8 8.0 0.00 0.00 0.00 56 1017.3
20260502062512 3 165 3.2 9.7 0.00 0.00 0.00 56 1017.2
20260502062006 3 175 4.8 9.7 0.00 0.00 0.00 56 1017.2
20260502061504 3 141 3.2 8.0 0.00 0.00 0.00 55 1017.2
20260502061003 4 155 4.8 9.7 0.00 0.00 0.00 53 1017.0
20260502060502 6 163 4.8 9.7 0.00 0.00 0.00 50 1017.0
20260502060101 7 350 3.2 6.4 0.00 0.00 0.00 51 1016.9
20260502055559 7 350 3.2 6.4 0.00 0.00 0.00 51 1016.9
20260502055058 7 350 1.6 4.8 0.00 0.00 0.00 51 1016.8
20260502054557 6 350 1.6 6.4 0.00 0.00 0.00 52 1016.8
20260502054059 6 299 1.6 8.0 0.00 0.00 0.00 52 1016.8
20260502053553 7 38 3.2 8.0 0.00 0.00 0.00 51 1016.7
20260502053102 7 51 1.6 6.4 0.00 0.00 0.00 50 1016.8
20260502052551 8 70 1.6 8.0 0.00 0.00 0.00 48 1016.8
20260502052049 8 33 0.0 9.7 0.00 0.00 0.00 47 1016.7
20260502051548 8 20 3.2 6.4 0.00 0.00 0.00 48 1016.6
20260502051047 8 14 3.2 6.4 0.00 0.00 0.00 48 1016.7
20260502050545 8 22 3.2 6.4 0.00 0.00 0.00 48 1016.6
20260502050043 8 3 3.2 8.0 0.00 0.00 0.00 48 1016.7
20260502045544 8 6 3.2 8.0 0.00 0.00 0.00 48 1016.7
20260502045043 8 359 3.2 8.0 0.00 0.00 0.00 48 1016.7
20260502044540 8 9 1.6 6.4 0.00 0.00 0.00 48 1016.7
20260502044038 8 9 3.2 6.4 0.00 0.00 0.00 48 1016.8
20260502043536 8 315 0.0 6.4 0.00 0.00 0.00 50 1016.8
20260502043036 8 41 1.6 6.4 0.00 0.00 0.00 51 1016.6
20260502042533 8 312 3.2 6.4 0.00 0.00 0.00 50 1016.6
20260502042033 8 326 1.6 8.0 0.00 0.00 0.00 50 1016.7
20260502041532 8 317 3.2 9.7 0.00 0.00 0.00 50 1016.6
20260502041029 8 328 4.8 9.7 0.00 0.00 0.00 50 1016.5
20260502040527 8 282 4.8 8.0 0.00 0.00 0.00 52 1016.5
20260502040026 8 288 3.2 6.4 0.00 0.00 0.00 51 1016.4
20260502035524 8 293 3.2 6.4 0.00 0.00 0.00 50 1016.4
20260502035123 8 295 0.0 6.4 0.00 0.00 0.00 49 1016.3
20260502034522 8 304 3.2 9.7 0.00 0.00 0.00 49 1016.2
20260502034021 8 300 4.8 9.7 0.00 0.00 0.00 48 1016.3
20260502033519 8 305 3.2 11.3 0.00 0.00 0.00 48 1016.2
20260502033024 9 307 4.8 12.9 0.00 0.00 0.00 48 1016.1
20260502032517 9 312 8.0 12.9 0.00 0.00 0.00 47 1016.0
20260502032019 9 328 4.8 9.7 0.00 0.00 0.00 48 1016.0
20260502031517 9 315 6.4 9.7 0.00 0.00 0.00 47 1015.9
20260502031016 9 317 4.8 9.7 0.00 0.00 0.00 47 1015.7
20260502030515 9 305 4.8 9.7 0.00 0.00 0.00 47 1015.7
20260502030013 9 330 1.6 9.7 0.00 0.00 0.00 47 1015.7
20260502025512 9 317 4.8 12.9 0.00 0.00 0.00 46 1015.6
20260502025010 10 313 4.8 12.9 0.00 0.00 0.00 45 1015.5
20260502024509 10 338 4.8 9.7 0.00 0.00 0.00 44 1015.5
20260502024011 10 315 3.2 8.0 0.00 0.00 0.00 43 1015.5
20260502023506 11 345 1.6 8.0 0.00 0.00 0.00 43 1015.5
20260502023005 11 315 3.2 8.0 0.00 0.00 0.00 41 1015.5
20260502022503 11 311 3.2 8.0 0.00 0.00 0.00 40 1015.5
20260502022003 12 345 1.6 8.0 0.00 0.00 0.00 41 1015.4
20260502021608 12 345 1.6 8.0 0.00 0.00 0.00 39 1015.3
20260502021058 12 6 3.2 8.0 0.00 0.00 0.00 37 1015.3
20260502020557 13 1 4.8 9.7 0.00 0.00 0.00 36 1015.2
20260502020056 13 3 4.8 9.7 0.00 0.00 0.00 36 1015.2
20260502015554 14 15 4.8 16.1 0.00 0.00 0.00 35 1015.2
20260502015053 15 1 8.0 17.7 0.00 0.00 0.00 33 1015.2
20260502014551 15 355 9.7 17.7 0.00 0.00 0.00 33 1015.2
20260502014049 15 355 9.7 17.7 0.00 0.00 0.00 32 1015.1
20260502013548 15 355 9.7 19.3 0.00 0.00 0.00 33 1015.1
20260502013047 15 332 12.9 22.5 0.00 0.00 0.00 32 1015.1
20260502012550 15 345 14.5 22.5 0.00 0.00 0.00 31 1015.1
20260502012044 15 345 12.9 22.5 0.00 0.00 0.00 31 1015.1
20260502011543 15 329 12.9 20.9 0.00 0.00 0.00 31 1015.0
20260502011041 15 338 11.3 22.5 0.00 0.00 0.00 31 1015.1
20260502010542 15 345 12.9 22.5 0.00 0.00 0.00 31 1015.0
20260502010038 16 355 11.3 22.5 0.00 0.00 0.00 31 1015.0
20260502005536 16 8 16.1 22.5 0.00 0.00 0.00 30 1015.0
20260502005035 16 23 14.5 24.1 0.00 0.00 0.00 30 1015.0
20260502004534 16 18 14.5 25.7 0.00 0.00 0.00 30 1015.0
20260502004034 16 24 16.1 25.7 0.00 0.00 0.00 30 1015.0
20260502003530 16 336 17.7 25.7 0.00 0.00 0.00 30 1015.0
20260502003029 16 330 17.7 25.7 0.00 0.00 0.00 31 1015.0
20260502002529 16 12 16.1 24.1 0.00 0.00 0.00 31 1015.0
20260502002026 16 7 16.1 24.1 0.00 0.00 0.00 31 1015.1
20260502001525 16 23 14.5 24.1 0.00 0.00 0.00 31 1015.1
20260502001023 16 341 14.5 24.1 0.00 0.00 0.00 31 1015.1
20260502000522 16 359 16.1 30.6 0.00 0.00 0.00 31 1015.1